Weather in Kepino

Russia / Arkhangel'skaya Oblast'     65°23′22″N   41°50′19″E
temp.,
°C
wind,
m/s
gust,
m/s
humid.,
%
clouds,
%
prec.,
mm/h
press.,
hPa
HPBL,
m
28 november, sun
sun2800:00−21e1110095 0.0 101313
03:00−22e1110083 0.0 101321
06:00−22ene1110087 0.0 101223
09:00−21ne1210093 0.1 101130
12:00−18ne24100100 0.0 101172
15:00−18nne25100100 0.0 101081
18:00−17nne2798100 0.0 1009142
21:00−16nne2896100 0.0 1009170
29 november, mon
mon2900:00−14nne31092100 0.0 1009275
03:00−14n389390 0.0 1010209
06:00−16n249480 0.0 101161
09:00−19nw1110012 0.0 10139
12:00−15w1110087 0.1 101429
15:00−15wnw1110084 0.1 101412
18:00−16w119958 0.0 101510
21:00−16wsw1110088 0.0 101411
30 november, tue
tue3000:00−14se2499100 0.1 101377
03:00−13e2896100 0.1 1012193
06:00−14e31190100 0.0 1010325
09:00−14e41388100 0.0 1006401
12:00−13ene51682100 0.0 1002496
15:00−13ene51687100 0.0 997570
18:00−12ene61775100 0.0 993634
21:00−10ene61876100 0.0 988742
1 december, wed
wed100:00−8ene6167695 0.0 985840
03:00−9ene61587100 0.0 983792
06:00−8ene51388100 0.1 982788
09:00−10ene41191100 0.1 986641
12:00−10ene41194100 0.6 987660
15:00−9ene41094100 1.6 986629
18:00−9ene41095100 1.2 986535
21:00−9ene31095100 2.2 986450
2 december, thu
thu200:00−8ene3994100 0.8 986416
03:00−8ene3994100 1.1 985359
06:00−9ene3995100 0.3 985345
09:00−9ene3895100 0.8 985310
12:00−8ene2695100 0.6 986298
15:00−9ne1398100 0.8 98776
18:00−8nne139794 0.4 988110
21:00−9nne2496100 0.8 990154